SVA235 OERK-LSZH

Flight info

Callsign SVA235
Flight time N/A
Altitude 34000
Route IVONU Z710 GAS G662 NIMAR L550 NOVPA N697 SIMSA/N0456F360 N697 MENLI L677 CVO L617 TANSA DCT KOR/N0448F380 DCT TUMBO DCT VAKSU DCT PEVAL DCT NAXAV DCT UNIMI L12 MOGTI P66 KPT L856 NEGRA
Aircraft A320/M-SDE3FGHIRWY/LB1

Departure

Time N/A
Airport King Khalid International Airport (OERK)

Arrival

Time 2026-05-04 21:09
Airport Zürich Airport (LSZH)
Time Latitude Longitude Altitude Speed Heading
2026-05-04 19:23 40.66878 19.88713 38099 ft 425 kts 323°
2026-05-04 19:24 40.69262 19.86362 38099 ft 425 kts 323°
2026-05-04 19:24 40.74000 19.81692 38104 ft 425 kts 323°
2026-05-04 19:25 40.78709 19.77052 38104 ft 425 kts 323°
2026-05-04 19:25 40.83164 19.71867 38097 ft 425 kts 316°
2026-05-04 19:26 40.87370 19.66433 38102 ft 425 kts 316°
2026-05-04 19:26 40.91586 19.60943 38101 ft 425 kts 316°
2026-05-04 19:27 40.95809 19.55464 38102 ft 425 kts 316°
2026-05-04 19:27 41.00032 19.49970 38102 ft 425 kts 316°
2026-05-04 19:28 41.04254 19.44452 38101 ft 426 kts 316°
2026-05-04 19:28 41.08462 19.38941 38105 ft 426 kts 316°
2026-05-04 19:29 41.12680 19.33425 38105 ft 426 kts 316°
2026-05-04 19:29 41.16897 19.27903 38105 ft 426 kts 316°
2026-05-04 19:30 41.21112 19.22379 38104 ft 426 kts 316°
2026-05-04 19:30 41.25325 19.16839 38103 ft 426 kts 316°
2026-05-04 19:31 41.29508 19.11322 38105 ft 426 kts 316°
2026-05-04 19:31 41.33715 19.05762 38109 ft 426 kts 316°
2026-05-04 19:32 41.37921 19.00191 38107 ft 427 kts 316°
2026-05-04 19:32 41.42131 18.94601 38109 ft 427 kts 316°
2026-05-04 19:33 41.46339 18.89005 38105 ft 427 kts 316°
2026-05-04 19:33 41.50545 18.83406 38103 ft 428 kts 315°
2026-05-04 19:34 41.54755 18.77786 38101 ft 428 kts 315°
2026-05-04 19:34 41.58965 18.72164 38101 ft 428 kts 315°
2026-05-04 19:35 41.63175 18.66524 38101 ft 428 kts 315°
2026-05-04 19:35 41.67381 18.60883 38100 ft 428 kts 315°
2026-05-04 19:36 41.71560 18.55278 38104 ft 428 kts 315°
2026-05-04 19:36 41.75765 18.49619 38099 ft 428 kts 315°
2026-05-04 19:37 41.79956 18.43944 38099 ft 428 kts 315°
2026-05-04 19:37 41.84143 18.38267 38101 ft 428 kts 315°
2026-05-04 19:38 41.88329 18.32596 38102 ft 428 kts 315°
2026-05-04 19:38 41.92513 18.26925 38101 ft 428 kts 315°
2026-05-04 19:39 41.96691 18.21251 38100 ft 427 kts 315°
2026-05-04 19:39 42.00865 18.15551 38102 ft 427 kts 315°
2026-05-04 19:40 42.05028 18.09854 38100 ft 427 kts 315°
2026-05-04 19:40 42.09197 18.04159 38099 ft 427 kts 315°
2026-05-04 19:41 42.13355 17.98453 38097 ft 427 kts 315°
2026-05-04 19:41 42.17511 17.92740 38098 ft 427 kts 315°
2026-05-04 19:42 42.21644 17.87060 38098 ft 427 kts 314°
2026-05-04 19:42 42.25821 17.81298 38100 ft 427 kts 314°
2026-05-04 19:43 42.29944 17.75591 38095 ft 427 kts 314°
2026-05-04 19:43 42.34090 17.69851 38097 ft 427 kts 314°
2026-05-04 19:44 42.38231 17.64099 38101 ft 427 kts 314°
2026-05-04 19:44 42.42367 17.58344 38100 ft 427 kts 314°
2026-05-04 19:45 42.46503 17.52579 38098 ft 427 kts 314°
2026-05-04 19:45 42.50635 17.46813 38099 ft 427 kts 314°
2026-05-04 19:46 42.54770 17.41032 38099 ft 427 kts 314°
2026-05-04 19:46 42.58892 17.35254 38102 ft 427 kts 314°
2026-05-04 19:47 42.63013 17.29457 38099 ft 427 kts 314°
2026-05-04 19:47 42.66436 17.24632 38096 ft 426 kts 314°
2026-05-04 19:48 42.71255 17.17840 38100 ft 427 kts 314°
2026-05-04 19:48 42.74677 17.13008 38097 ft 427 kts 313°
2026-05-04 19:49 42.78789 17.07188 38101 ft 427 kts 313°
2026-05-04 19:49 42.82898 17.01360 38094 ft 427 kts 313°
2026-05-04 19:50 42.87011 16.95521 38100 ft 427 kts 313°
2026-05-04 19:50 42.91119 16.89671 38092 ft 427 kts 313°
2026-05-04 19:51 42.95216 16.83812 38092 ft 427 kts 313°
2026-05-04 19:51 42.99320 16.77938 38088 ft 427 kts 313°
2026-05-04 19:52 43.03391 16.72094 38089 ft 427 kts 313°
2026-05-04 19:52 43.07496 16.66202 38088 ft 427 kts 313°
2026-05-04 19:53 43.11600 16.60310 38080 ft 428 kts 313°
2026-05-04 19:53 43.15697 16.54402 38082 ft 428 kts 313°
2026-05-04 19:54 43.19794 16.48472 38082 ft 429 kts 313°
2026-05-04 19:54 43.23894 16.42527 38082 ft 429 kts 313°
2026-05-04 19:55 43.27988 16.36572 38100 ft 429 kts 312°
2026-05-04 19:55 43.32081 16.30612 38084 ft 429 kts 312°
2026-05-04 19:56 43.36155 16.24683 38087 ft 429 kts 312°
2026-05-04 19:56 43.40245 16.18724 38093 ft 429 kts 312°
2026-05-04 19:57 43.44281 16.12817 38106 ft 429 kts 312°
2026-05-04 19:57 43.48366 16.06819 38087 ft 429 kts 312°
2026-05-04 19:58 43.52445 16.00810 38085 ft 430 kts 312°
2026-05-04 19:58 43.56522 15.94788 38082 ft 430 kts 312°
2026-05-04 19:59 43.60619 15.88764 38080 ft 430 kts 312°
2026-05-04 19:59 43.64699 15.82728 38074 ft 430 kts 312°
2026-05-04 20:00 43.68781 15.76673 38071 ft 430 kts 311°
2026-05-04 20:00 43.72859 15.70608 38088 ft 430 kts 311°
2026-05-04 20:01 43.76937 15.64543 38073 ft 431 kts 311°
2026-05-04 20:01 43.81015 15.58465 38069 ft 431 kts 311°
2026-05-04 20:02 43.85065 15.52407 38083 ft 431 kts 311°
2026-05-04 20:02 43.89137 15.46304 38082 ft 431 kts 311°
2026-05-04 20:03 43.93214 15.40181 38104 ft 431 kts 311°
2026-05-04 20:03 43.97276 15.34062 38112 ft 431 kts 311°
2026-05-04 20:04 44.01348 15.27933 38102 ft 431 kts 311°
2026-05-04 20:04 44.05407 15.21792 38104 ft 432 kts 311°
2026-05-04 20:05 44.09466 15.15628 38100 ft 432 kts 311°
2026-05-04 20:05 44.13520 15.09460 38093 ft 432 kts 311°
2026-05-04 20:06 44.17588 15.03292 38088 ft 432 kts 311°
2026-05-04 20:06 44.21651 14.97112 38078 ft 433 kts 310°
2026-05-04 20:07 44.25706 14.90909 38072 ft 433 kts 310°
2026-05-04 20:07 44.29732 14.84735 38068 ft 433 kts 310°
2026-05-04 20:08 44.33782 14.78516 38064 ft 433 kts 310°
2026-05-04 20:08 44.37832 14.72285 38067 ft 433 kts 310°
2026-05-04 20:09 44.41885 14.66040 38063 ft 433 kts 310°
2026-05-04 20:09 44.45931 14.59786 38064 ft 434 kts 310°
2026-05-04 20:10 44.49984 14.53509 38064 ft 434 kts 310°
2026-05-04 20:10 44.54025 14.47219 38062 ft 434 kts 310°
2026-05-04 20:11 44.58074 14.40927 38059 ft 435 kts 310°
2026-05-04 20:11 44.62123 14.34621 38059 ft 435 kts 310°
2026-05-04 20:12 44.66166 14.28291 38060 ft 435 kts 310°
2026-05-04 20:12 44.70211 14.21951 38069 ft 436 kts 310°
2026-05-04 20:13 44.74264 14.15604 38070 ft 436 kts 310°
2026-05-04 20:13 44.78305 14.09242 38074 ft 436 kts 309°
2026-05-04 20:14 44.82346 14.02865 38079 ft 436 kts 309°
2026-05-04 20:14 44.86392 13.96486 38079 ft 437 kts 309°
2026-05-04 20:15 44.90443 13.90080 38077 ft 437 kts 309°
2026-05-04 20:15 44.94484 13.83661 38080 ft 438 kts 309°
2026-05-04 20:16 44.98494 13.77261 38077 ft 438 kts 309°
2026-05-04 20:16 45.02534 13.70805 38075 ft 439 kts 309°
2026-05-04 20:17 45.06579 13.64342 38063 ft 439 kts 309°
2026-05-04 20:17 45.10623 13.57861 38051 ft 439 kts 309°
2026-05-04 20:18 45.14667 13.51364 38049 ft 440 kts 309°
2026-05-04 20:18 45.18712 13.44865 38052 ft 440 kts 309°
2026-05-04 20:19 45.22751 13.38340 38048 ft 440 kts 309°
2026-05-04 20:19 45.26791 13.31799 38053 ft 441 kts 309°
2026-05-04 20:20 45.30828 13.25254 38043 ft 441 kts 309°
2026-05-04 20:20 45.34880 13.18687 38037 ft 442 kts 309°
2026-05-04 20:21 45.38914 13.12175 38031 ft 442 kts 309°
2026-05-04 20:21 45.45001 13.02294 38031 ft 443 kts 309°
2026-05-04 20:22 45.49058 12.95687 38031 ft 443 kts 309°
2026-05-04 20:22 45.53115 12.89062 38033 ft 443 kts 309°
2026-05-04 20:23 45.57169 12.82422 38030 ft 444 kts 309°
2026-05-04 20:23 45.61226 12.75763 38034 ft 444 kts 309°
2026-05-04 20:24 45.65261 12.69139 38037 ft 445 kts 309°
2026-05-04 20:24 45.69317 12.62458 38039 ft 445 kts 309°
2026-05-04 20:25 45.73372 12.55751 38036 ft 445 kts 308°
2026-05-04 20:25 45.77422 12.49031 38043 ft 446 kts 308°
2026-05-04 20:26 45.81474 12.42304 38044 ft 446 kts 308°
2026-05-04 20:26 45.85527 12.35568 38046 ft 446 kts 308°
2026-05-04 20:27 45.89581 12.28818 38045 ft 447 kts 308°
2026-05-04 20:27 45.93624 12.22052 38047 ft 447 kts 308°
2026-05-04 20:28 45.97681 12.15256 38048 ft 447 kts 308°
2026-05-04 20:28 46.01718 12.08447 38053 ft 448 kts 308°
2026-05-04 20:29 46.05760 12.01624 38052 ft 448 kts 308°
2026-05-04 20:29 46.09810 11.94790 38061 ft 449 kts 308°
2026-05-04 20:30 46.13856 11.87946 38068 ft 448 kts 308°
2026-05-04 20:30 46.17907 11.81077 38062 ft 449 kts 308°
2026-05-04 20:31 46.21917 11.74249 38071 ft 449 kts 308°
2026-05-04 20:31 46.25952 11.67353 38068 ft 450 kts 308°
2026-05-04 20:32 46.30001 11.60424 38052 ft 450 kts 308°
2026-05-04 20:32 46.34038 11.53505 38048 ft 450 kts 308°
2026-05-04 20:33 46.38080 11.46560 38029 ft 451 kts 307°
2026-05-04 20:33 46.42110 11.39601 38021 ft 451 kts 307°
2026-05-04 20:34 46.46440 11.33017 38022 ft 455 kts 320°
2026-05-04 20:34 46.52017 11.28585 38012 ft 461 kts 333°
2026-05-04 20:35 46.57893 11.24832 38024 ft 461 kts 333°
2026-05-04 20:35 46.63760 11.21042 38055 ft 461 kts 333°
2026-05-04 20:36 46.68632 11.17882 38076 ft 461 kts 333°
2026-05-04 20:36 46.75450 11.13450 38110 ft 461 kts 333°
2026-05-04 20:37 46.81310 11.09636 38113 ft 461 kts 333°
2026-05-04 20:37 46.86217 11.06436 38091 ft 461 kts 333°
2026-05-04 20:38 46.92022 11.02583 38082 ft 461 kts 332°
2026-05-04 20:38 46.97858 10.98655 38087 ft 462 kts 332°
2026-05-04 20:39 47.03730 10.94798 38064 ft 463 kts 333°
2026-05-04 20:39 47.09608 10.90992 38038 ft 461 kts 333°
2026-05-04 20:40 47.15454 10.87186 38035 ft 460 kts 333°
2026-05-04 20:40 47.20961 10.83553 38023 ft 462 kts 333°
2026-05-04 20:41 47.26828 10.79668 38015 ft 463 kts 333°
2026-05-04 20:41 47.32713 10.75778 38011 ft 464 kts 333°
2026-05-04 20:42 47.38596 10.71800 38004 ft 463 kts 328°
2026-05-04 20:42 47.43931 10.66580 37988 ft 459 kts 322°
2026-05-04 20:43 47.49191 10.61194 37983 ft 461 kts 322°
2026-05-04 20:43 47.51834 10.58487 37775 ft 458 kts 322°
2026-05-04 20:43 47.54424 10.55839 37538 ft 447 kts 322°
2026-05-04 20:44 47.56951 10.53258 36930 ft 442 kts 322°
2026-05-04 20:44 47.59481 10.50660 36216 ft 440 kts 322°
2026-05-04 20:44 47.62000 10.48056 35432 ft 441 kts 322°
2026-05-04 20:44 47.64486 10.45474 34666 ft 442 kts 322°
2026-05-04 20:45 47.66996 10.42867 34093 ft 439 kts 322°
2026-05-04 20:45 47.69493 10.40301 33468 ft 435 kts 322°
2026-05-04 20:45 47.71974 10.37753 32834 ft 432 kts 322°
2026-05-04 20:45 47.74282 10.35381 32246 ft 429 kts 322°
2026-05-04 20:46 47.76520 10.32507 31659 ft 420 kts 307°
2026-05-04 20:46 47.78147 10.28947 30814 ft 416 kts 291°
2026-05-04 20:46 47.79047 10.24877 29905 ft 415 kts 278°
2026-05-04 20:46 47.79761 10.20676 28828 ft 423 kts 283°
2026-05-04 20:47 47.80629 10.16503 27986 ft 423 kts 284°
2026-05-04 20:47 47.81505 10.12345 27326 ft 419 kts 284°
2026-05-04 20:47 47.82372 10.08232 26697 ft 414 kts 284°
2026-05-04 20:47 47.83229 10.04159 26096 ft 410 kts 284°
2026-05-04 20:48 47.84074 10.00135 25498 ft 406 kts 284°
2026-05-04 20:48 47.84911 9.96142 24909 ft 402 kts 284°
2026-05-04 20:48 47.85737 9.92185 24341 ft 398 kts 284°
2026-05-04 20:48 47.86555 9.88260 23793 ft 395 kts 284°
2026-05-04 20:49 47.87363 9.84370 23194 ft 392 kts 284°
2026-05-04 20:49 47.88158 9.80535 22379 ft 383 kts 284°
2026-05-04 20:49 47.88938 9.76769 21350 ft 378 kts 284°
2026-05-04 20:49 47.89706 9.73043 20382 ft 373 kts 284°
2026-05-04 20:50 47.90459 9.69366 19455 ft 368 kts 284°
2026-05-04 20:50 47.91185 9.65794 18571 ft 363 kts 284°
2026-05-04 20:50 47.91906 9.62213 17596 ft 358 kts 284°
2026-05-04 20:50 47.92614 9.58682 16640 ft 353 kts 284°
2026-05-04 20:51 47.93313 9.55203 15724 ft 348 kts 284°
2026-05-04 20:51 47.94005 9.51767 14847 ft 343 kts 284°
2026-05-04 20:51 47.94687 9.48390 13972 ft 339 kts 284°
2026-05-04 20:51 47.95369 9.45024 12830 ft 339 kts 284°
2026-05-04 20:52 47.96053 9.41661 11885 ft 335 kts 284°
2026-05-04 20:52 47.96711 9.38456 11685 ft 309 kts 284°
2026-05-04 20:52 47.97326 9.35499 11359 ft 292 kts 284°
2026-05-04 20:52 47.97932 9.32606 10987 ft 290 kts 284°
2026-05-04 20:53 47.98533 9.29743 10627 ft 288 kts 284°
2026-05-04 20:53 47.99132 9.26897 10239 ft 287 kts 284°
2026-05-04 20:53 47.99730 9.24064 9944 ft 287 kts 284°
2026-05-04 20:53 48.00328 9.21219 9826 ft 287 kts 284°
2026-05-04 20:54 48.00926 9.18367 9693 ft 287 kts 284°
2026-05-04 20:54 48.01361 9.15488 9565 ft 282 kts 269°
2026-05-04 20:54 48.01337 9.12565 9439 ft 281 kts 264°
2026-05-04 20:54 48.01240 9.09652 9299 ft 280 kts 264°
2026-05-04 20:55 48.01135 9.06753 9176 ft 280 kts 264°
2026-05-04 20:55 48.01026 9.03848 9041 ft 280 kts 264°
2026-05-04 20:55 48.00913 9.00952 8913 ft 279 kts 262°
2026-05-04 20:55 48.00452 8.98210 8788 ft 275 kts 246°
2026-05-04 20:56 47.99709 8.95592 8660 ft 275 kts 244°
2026-05-04 20:56 47.98930 8.92979 8532 ft 275 kts 244°
2026-05-04 20:56 47.98150 8.90384 8404 ft 274 kts 244°
2026-05-04 20:56 47.97369 8.87787 8275 ft 274 kts 244°
2026-05-04 20:57 47.96588 8.85195 8149 ft 274 kts 244°
2026-05-04 20:57 47.95802 8.82603 8025 ft 274 kts 244°
2026-05-04 20:57 47.95018 8.80017 7900 ft 274 kts 244°
2026-05-04 20:57 47.94230 8.77430 7771 ft 274 kts 244°
2026-05-04 20:58 47.93443 8.74851 7656 ft 273 kts 244°
2026-05-04 20:58 47.92651 8.72281 7520 ft 273 kts 242°
2026-05-04 20:58 47.91552 8.70009 7404 ft 271 kts 226°
2026-05-04 20:58 47.90239 8.68002 7276 ft 270 kts 224°
2026-05-04 20:59 47.89036 8.66221 7166 ft 270 kts 224°
2026-05-04 20:59 47.87721 8.64280 7040 ft 259 kts 224°
2026-05-04 20:59 47.86474 8.62438 6924 ft 246 kts 224°
2026-05-04 20:59 47.85294 8.60687 6799 ft 233 kts 224°
2026-05-04 21:00 47.84179 8.59026 6680 ft 221 kts 224°
2026-05-04 21:00 47.83116 8.57438 6454 ft 215 kts 224°
2026-05-04 21:00 47.82066 8.55869 6206 ft 214 kts 224°
2026-05-04 21:00 47.81008 8.54299 6059 ft 214 kts 224°
2026-05-04 21:01 47.79964 8.52755 5938 ft 214 kts 224°
2026-05-04 21:01 47.78907 8.51201 5815 ft 214 kts 224°
2026-05-04 21:01 47.77847 8.49651 5688 ft 214 kts 224°
2026-05-04 21:01 47.76787 8.48110 5564 ft 213 kts 224°
2026-05-04 21:02 47.75720 8.46570 5439 ft 213 kts 224°
2026-05-04 21:02 47.74656 8.45041 5312 ft 213 kts 224°
2026-05-04 21:02 47.73594 8.43521 5185 ft 212 kts 224°
2026-05-04 21:02 47.72528 8.42004 5061 ft 212 kts 224°
2026-05-04 21:03 47.71465 8.40504 4937 ft 212 kts 224°
2026-05-04 21:03 47.70391 8.38999 4817 ft 212 kts 224°
2026-05-04 21:03 47.69314 8.37500 4680 ft 212 kts 224°
2026-05-04 21:03 47.68113 8.36276 4569 ft 212 kts 197°
2026-05-04 21:04 47.66645 8.36095 4431 ft 214 kts 177°
2026-05-04 21:04 47.65158 8.36313 4315 ft 215 kts 174°
2026-05-04 21:04 47.63677 8.36590 4187 ft 215 kts 174°
2026-05-04 21:04 47.62192 8.36875 4080 ft 215 kts 174°
2026-05-04 21:05 47.60716 8.37209 3992 ft 215 kts 165°
2026-05-04 21:05 47.59406 8.38249 4000 ft 216 kts 139°
2026-05-04 21:05 47.58315 8.39743 3988 ft 208 kts 137°
2026-05-04 21:05 47.57288 8.41164 3862 ft 197 kts 137°
2026-05-04 21:06 47.56291 8.42536 3623 ft 195 kts 138°
2026-05-04 21:06 47.55298 8.43898 3373 ft 192 kts 138°
2026-05-04 21:06 47.54382 8.45155 3156 ft 171 kts 138°
2026-05-04 21:06 47.53563 8.46279 2929 ft 151 kts 138°
2026-05-04 21:07 47.52822 8.47283 2755 ft 143 kts 139°
2026-05-04 21:07 47.52086 8.48266 2544 ft 142 kts 138°
2026-05-04 21:07 47.51364 8.49273 2298 ft 140 kts 139°
2026-05-04 21:07 47.50651 8.50225 2131 ft 140 kts 138°
2026-05-04 21:08 47.49938 8.51205 1971 ft 140 kts 139°
2026-05-04 21:08 47.49237 8.52193 1773 ft 139 kts 138°
2026-05-04 21:08 47.48531 8.53168 1554 ft 138 kts 139°
2026-05-04 21:08 47.47835 8.54112 1406 ft 130 kts 139°
2026-05-04 21:09 47.47320 8.54819 1390 ft 63 kts 138°
2026-05-04 21:09 47.47027 8.55217 1384 ft 53 kts 137°
2026-05-04 21:09 47.46800 8.55523 1393 ft 31 kts 139°
2026-05-04 21:09 47.46614 8.55672 1398 ft 30 kts 164°
2026-05-04 21:10 47.46474 8.55720 1398 ft 9 kts 167°
2026-05-04 21:10 47.46422 8.55737 1397 ft 6 kts 168°
2026-05-04 21:10 47.46392 8.55753 1398 ft 4 kts 154°
2026-05-04 21:10 47.46352 8.55797 1399 ft 11 kts 131°
2026-05-04 21:11 47.46300 8.55874 1407 ft 9 kts 136°
2026-05-04 21:11 47.46259 8.55895 1403 ft 4 kts 187°
2026-05-04 21:11 47.46234 8.55856 1405 ft 8 kts 251°
2026-05-04 21:11 47.46239 8.55729 1406 ft 17 kts 278°
2026-05-04 21:12 47.46252 8.55540 1408 ft 15 kts 275°
2026-05-04 21:12 47.46230 8.55498 1403 ft 4 kts 181°
2026-05-04 21:12 47.46205 8.55495 1399 ft 5 kts 185°
2026-05-04 21:12 47.46175 8.55492 1399 ft 1 kts 184°
2026-05-04 21:13 47.46171 8.55491 1399 ft 0 kts 186°
2026-05-04 21:13 47.46170 8.55491 1399 ft 0 kts 186°
2026-05-04 21:13 47.46169 8.55491 1399 ft 0 kts 186°